Kailua Kona, HI

5:04 AM HST on February 21, 2017 (GMT -1000)
Kona International At Keahole

Weather History for PHKO - September, 2014

Change the Weather History Date:

Tuesday, September 9, 2014

  Actual Average Record
Temperature  
Mean Temperature 82 °F -  
Max Temperature 86 °F 84 °F 91 °F (1982)
Min Temperature 78 °F 73 °F 70 °F (1984)
Cooling Degree Days 17    
Growing Degree Days 32 (Base 50)    
Moisture  
Dew Point 69 °F    
Average Humidity 66    
Maximum Humidity 78    
Minimum Humidity 51    
Precipitation  
Precipitation 0.00 in - - ()
Sea Level Pressure  
Sea Level Pressure 29.97 in    
Wind  
Wind Speed 9 mph (WNW)    
Max Wind Speed 15 mph    
Max Gust Speed -    
Visibility 10 miles    
Events Rain    
Averages and records for this station are not official NWS values.
T = Trace of Precipitation, MM = Missing Value Source: NWS Daily Summary

Daily Weather History Graph

Daily Weather History Graph

Search for Another Location

Airport or City:

Trip Planner

Search our weather history database for the weather conditions in past years. The results will help you decide how hot, cold, wet, or windy it might be!

Date:

Astronomy

Sep. 09, 2014 Rise Set
Actual Time 6:10 AM HST 6:32 PM HST
Civil Twilight 5:48 AM HST 6:54 PM HST
Nautical Twilight 5:22 AM HST 7:19 PM HST
Astronomical Twilight 4:56 AM HST 7:45 PM HST
Moon 7:14 PM HST (9/9) 6:49 AM HST (9/9)
Length of Visible Light 13h 05m
Length of Day
12h 21m
Full, 99% of the Moon is Illuminated
Sep 9
Full
Sep 15
Last Quarter
Sep 23
New
Oct 1
First Quarter
Oct 8
Full

Hourly Weather History & Observations

Time (HST) Temp. Heat Index Dew Point Humidity Pressure Visibility Wind Dir Wind Speed Gust Speed Precip Events Conditions
12:53 AM 81.0 °F 82.5 °F 64.0 °F 56% 29.96 in 10.0 mi NNE 11.5 mph - N/A   Clear
1:53 AM 80.1 °F 82.1 °F 66.0 °F 62% 29.95 in 10.0 mi NNE 11.5 mph - N/A   Clear
2:53 AM 79.0 °F - 66.0 °F 64% 29.94 in 10.0 mi NNE 10.4 mph - N/A   Clear
3:53 AM 79.0 °F - 66.0 °F 64% 29.94 in 10.0 mi North 5.8 mph - N/A   Scattered Clouds
4:53 AM 79.0 °F - 70.0 °F 74% 29.95 in 10.0 mi NW 11.5 mph - N/A   Overcast
5:53 AM 78.1 °F - 69.1 °F 74% 29.97 in 10.0 mi WNW 3.5 mph - N/A   Overcast
5:55 AM 78.8 °F - 69.8 °F 74% 29.96 in 10.0 mi WNW 3.5 mph - N/A   Overcast
6:53 AM 79.0 °F - 69.1 °F 72% 29.98 in 10.0 mi Calm Calm - N/A   Overcast
7:53 AM 80.1 °F 82.3 °F 66.9 °F 64% 29.99 in 10.0 mi Calm Calm - N/A   Mostly Cloudy
8:53 AM 84.0 °F 85.4 °F 64.0 °F 51% 29.99 in 10.0 mi WNW 4.6 mph - N/A   Mostly Cloudy
9:53 AM 84.9 °F 88.2 °F 68.0 °F 57% 29.99 in 10.0 mi NW 10.4 mph - N/A   Mostly Cloudy
10:53 AM 82.4 °F 86.3 °F 69.8 °F 66% 29.99 in 10.0 mi WNW 8.1 mph - N/A   Clear
11:53 AM 84.9 °F 89.4 °F 70.0 °F 61% 29.98 in 10.0 mi West 8.1 mph - N/A   Mostly Cloudy
12:53 PM 84.9 °F 88.8 °F 69.1 °F 59% 29.97 in 10.0 mi WSW 10.4 mph - N/A   Clear
1:53 PM 86.0 °F 91.5 °F 71.1 °F 61% 29.95 in 10.0 mi South 13.8 mph - N/A   Clear
2:53 PM 84.9 °F 90.1 °F 71.1 °F 63% 29.93 in 10.0 mi South 15.0 mph - N/A   Clear
3:53 PM 84.9 °F 90.1 °F 71.1 °F 63% 29.93 in 10.0 mi South 12.7 mph - N/A   Clear
4:53 PM 84.0 °F 88.4 °F 70.0 °F 63% 29.93 in 10.0 mi SSW 11.5 mph - N/A   Scattered Clouds
5:53 PM 82.9 °F 87.0 °F 70.0 °F 65% 29.94 in 10.0 mi SSW 10.4 mph - N/A   Partly Cloudy
6:53 PM 82.0 °F 85.5 °F 69.1 °F 65% 29.95 in 10.0 mi SSW 4.6 mph - N/A   Scattered Clouds
7:53 PM 82.0 °F 85.9 °F 70.0 °F 67% 29.97 in 10.0 mi WNW 3.5 mph - N/A   Mostly Cloudy
8:53 PM 82.0 °F 85.9 °F 70.0 °F 67% 29.99 in 10.0 mi WNW 5.8 mph - N/A   Overcast
9:53 PM 81.0 °F 84.9 °F 71.1 °F 72% 30.00 in 10.0 mi NW 5.8 mph - N/A   Overcast
10:53 PM 81.0 °F 84.9 °F 71.1 °F 72% 30.00 in 10.0 mi NNW 6.9 mph - N/A   Scattered Clouds
11:28 PM 80.6 °F 83.9 °F 69.8 °F 70% 30.00 in 10.0 mi NNE 10.4 mph - N/A   Overcast
11:51 PM 78.8 °F - 71.6 °F 78% 29.99 in 10.0 mi North 9.2 mph - 0.00 in   Overcast
11:53 PM 79.0 °F - 71.1 °F 77% 30.00 in 10.0 mi North 6.9 mph - 0.00 in Rain Light Rain